User: anonymous   Login
Location: Sungai Jaoh
(2.9167°N, 113.9167°E)
Time: 18:32:12
(UTC+00:00)
Language:

COSMOS 2251 DEB - Orbit

View from above orbital plane
View from above orbital plane
View from above satellite
View from above satellite

Ground track
Ground track

The orbit data is extracted from the following two-line orbital elements,

1 33793U 93036AJ  21172.53730551  .00000197  00000-0  99327-4 0  9999
2 33793  73.9844 220.4801 0086231  17.0628  96.0056 14.20793689639400
Epoch (UTC): 21 June 2021 12:53:43
Eccentricity: 0.0086231
inclination: 73.9844°
perigee height: 760 km
apogee height: 885 km
right ascension of ascending node: 220.4801°
argument of perigee: 17.0628°
revolutions per day: 14.20793689
mean anomaly at epoch: 96.0056°
orbit number at epoch: 63940

The dashed part of the orbit path shows where the satellite is in the earth's shadow,  

DLR